Regional Weather Roundup
Issued by NWS

Home | Current Version | Previous Version | Graphics & Text | Print | Product List | Glossary On
Versions: 1 2 3 4 5 6 7 8 9 10 11 12 13 14 15 16 17 18 19 20 21 22 23 24 25 26 27 28 29 30 31 32 33 34 35 36 37 38 39 40 41 42 43 44 45 46 47 48 49 50
000
ASUS43 KDMX 181507
RWRIA

WEATHER ROUNDUP FOR IOWA
NATIONAL WEATHER SERVICE DES MOINES IA
1000 AM CDT SAT APR 18 2015

NOTE: "FAIR" INDICATES FEW OR NO CLOUDS BELOW 12,000 FEET WITH NO
SIGNIFICANT WEATHER AND/OR OBSTRUCTIONS TO VISIBILITY.

* - THESE STATIONS ARE NOT NWS STATIONS...THUS NOT UNDER NWS
QUALITY CONTROL.  THEY ALSO DO NOT REPORT WEATHER SUCH
AS PRECIPITATION OR FOG.

IAZ001>003-012>014-020>022-031>034-043>046-181600-
   NORTHWEST IOWA

CITY           SKY/WX    TMP DP  RH WIND       PRES   REMARKS
CARROLL *      CLOUDY    61  59  94 E15       29.95F
CHEROKEE *     LGT RAIN  59  48  67 E9        29.96S
DENISON *      CLOUDY    63  59  88 E13G23    29.91F
LE MARS *      CLOUDY    61  46  59 E9        29.95F
ORANGE CITY *  CLOUDY    57  41  54 E8        29.95F
SHELDON *      CLOUDY    59  37  44 E15       29.95F
SIOUX CITY     CLOUDY    60  49  66 E7        29.92F
SPENCER        CLOUDY    61  40  45 E13       29.98F
STORM LAKE *   PTSUNNY   64  50  59 E18G24    29.97S
$$

IAZ055>058-069>071-079>083-090>094-181600-
   SOUTHWEST IOWA

CITY           SKY/WX    TMP DP  RH WIND       PRES   REMARKS
ATLANTIC *     LGT RAIN  64  57  77 E12       29.92F
AUDUBON *      LGT RAIN  63  57  82 E13       29.95F
CLARINDA *     SUNNY     68  59  73 E6G13     29.91F
COUNCIL BLFS * PTSUNNY   64  59  82 E10       29.91S
CRESTON *      PTSUNNY   66  57  72 E12       29.93F
HARLAN  *      LGT RAIN  61  61 100 E15G22    29.95F
LAMONI         LGT RAIN  63  59  87 E3        29.93S
RED OAK *      PTSUNNY   66  59  77 E8        29.90F
SHENANDOAH *   PTSUNNY   63  59  88 S7G13     29.92R
$$

IAZ047>049-059>061-072>074-084-181600-
   CENTRAL IOWA

CITY           SKY/WX    TMP DP  RH WIND       PRES   REMARKS
AMES           CLOUDY    57  52  83 NE13      29.98F
ANKENY *       PTSUNNY   61  54  77 NE9G15    29.97R
CHARITON *     PTSUNNY   66  57  72 SE10      29.94S
DES MOINES     CLOUDY    65  56  72 NE9       29.96S
GRINNELL*      CLOUDY    66  52  59 E10       29.98S
KNOXVILLE *    MOSUNNY   64  55  72 E5        29.95R
MARSHALLTOWN   CLOUDY    66  49  54 E13       29.98F
PELLA *        CLOUDY    68  59  73 E6        29.96F
PERRY *        CLOUDY    61  57  88 NE9       29.96F
$$

IAZ004>006-015-016-023>025-035-036-181600-
   NORTH CENTRAL IOWA

CITY           SKY/WX    TMP DP  RH WIND       PRES   REMARKS
ALGONA *       MOSUNNY   63  43  48 E12       30.01S
CLARION *      PTSUNNY   59  46  63 E7        30.01S
ESTHERVILLE    CLOUDY    60  37  42 SE12      30.00S
FORT DODGE *   CLOUDY    57  46  67 E12       30.00S
MASON CITY     CLOUDY    64  37  36 E14       30.03S
FOREST CITY *  SUNNY     61  34  36 E15       30.01S
IOWA FALLS *     N/A     63  43  48 CALM      30.01F
$$

IAZ007>011-017>019-026>030-037>042-050>054-066-181600-
   NORTHEAST IOWA

CITY           SKY/WX    TMP DP  RH WIND       PRES   REMARKS
CEDAR RAPIDS   PTSUNNY   68  51  54 E10       29.99F
CHARLES CITY * SUNNY     66  36  32 E14G22    30.02F
CLINTON *      MOSUNNY   70  48  46 E14       30.04F
DECORAH *      SUNNY     64  36  34 E14G21    30.04F
DUBUQUE        MOSUNNY   70  42  36 NE14      30.04S
MONTICELLO *   SUNNY     72  46  40 E14G21    30.01F
OELWEIN *      SUNNY     70  37  30 E17       30.02F
WATERLOO       PTSUNNY   70  41  34 E17       29.99F
$$

IAZ064-065-067-068-078-181600-
   EAST CENTRAL IOWA

CITY           SKY/WX    TMP DP  RH WIND       PRES   REMARKS
DAVENPORT      MOSUNNY   68  50  52 E9        30.02S
IOWA CITY      CLOUDY    69  52  54 E8        30.01F
MT. PLEASANT * CLOUDY    70  55  60 E6        29.99S
MUSCATINE *    SUNNY     68  54  60 E5        30.00F
QUAD CITIES    PTSUNNY   69  52  54 NE6       30.01S
$$

IAZ062-063-075>077-085>089-095>099-181600-
   SOUTHEAST IOWA

CITY           SKY/WX    TMP DP  RH WIND       PRES   REMARKS
BURLINGTON     CLOUDY    67  58  72 E5        29.99F
FAIRFIELD *    SUNNY     68  57  68 E8        29.98F
FORT MADISON * SUNNY     70  57  64 SE6       30.00R
KEOKUK *       SUNNY     68  59  73 SE5       29.98S
OSKALOOSA *      N/A     70  55  60 SE10      29.97F
CENTERVILLE *  SUNNY     64  59  82 E9        29.97S
OTTUMWA        CLOUDY    68  56  65 SE9       29.96F
WASHINGTON *   SUNNY     72  57  60 E7        29.99F
$$

ABBREVIATIONS USED IN REMARKS
   TC - TEMPERATURES IN CELSIUS
  WCI - WIND CHILL INDEX
   HX - HEAT INDEX
  VSB - VISIBILITY
$$




USA.gov is the U.S. government's official web portal to all federal, state and local government web resources and services.